Theta_e
322 315 308 306 296 292 289 294 297 302 303 314 319 321 320 320 320 313 340 348 353 353 356 358 362 361 362 361 361 360 359 359 359 359 359 358 359 360 361 361 362 359 357 356 356 356 356 356 357
321 311 305 297 292 287 290 294 298 303 304 306 318 324 322 318 330 337 340 352 353 354 355 358 361 361 361 361 360 359 359 359 358 358 358 359 360 361 362 361 361 358 355 355 356 355 354 354 356
312 308 300 294 288 290 291 295 299 301 303 304 310 329 326 324 336 339 344 352 354 354 356 358 361 360 360 360 359 358 358 358 358 359 359 360 361 361 361 361 361 359 355 355 356 356 354 354 354
305 302 297 289 288 292 296 297 299 301 303 305 317 318 329 337 336 343 351 353 352 353 355 361 361 360 360 360 359 358 358 358 358 359 360 360 360 360 360 360 360 359 356 355 356 356 355 354 354
302 297 289 286 289 292 295 299 300 299 300 303 304 304 317 340 343 348 350 352 351 352 355 359 361 360 360 360 359 358 357 357 358 359 359 360 360 359 359 359 359 359 357 355 356 356 356 356 355
297 294 286 286 288 295 296 299 299 299 300 303 303 304 312 343 344 347 351 350 353 352 356 357 361 360 359 359 358 357 357 357 357 358 358 359 358 358 358 358 358 358 357 356 355 356 356 354 353
294 290 287 286 288 294 296 299 300 300 299 302 306 306 317 338 345 349 350 351 351 354 354 356 356 358 360 359 358 357 356 356 356 357 357 358 358 357 358 358 358 357 357 356 356 356 354 352 353
294 292 286 287 290 291 297 300 300 300 303 308 315 315 317 338 346 348 348 350 350 352 353 353 354 354 355 356 358 357 356 356 356 357 357 357 357 357 357 356 357 356 355 355 356 355 354 354 353
295 287 284 287 290 292 297 297 301 304 303 304 307 309 322 343 344 343 344 347 349 351 352 352 352 352 352 353 355 357 356 357 357 357 357 355 351 354 355 354 357 356 356 356 355 354 354 353 352
293 286 288 291 295 290 297 297 299 301 301 301 304 310 343 341 340 339 340 341 344 346 349 350 351 350 350 352 352 352 351 352 351 352 353 352 349 349 351 353 356 356 356 356 355 354 354 353 347
296 291 291 294 296 297 297 298 301 299 298 301 302 311 340 338 338 339 339 341 343 346 348 349 349 350 349 349 352 351 350 351 350 350 350 348 347 349 350 347 351 351 355 351 353 351 350 347 345
293 297 298 295 297 297 296 299 299 300 301 304 305 305 339 337 336 339 338 340 341 345 347 349 349 349 348 350 350 349 349 348 347 348 347 345 344 345 345 344 346 346 346 345 344 343 343 342 342
291 296 298 300 299 297 299 298 298 300 304 304 305 306 315 337 338 340 340 341 341 343 346 347 348 347 347 348 348 346 346 346 346 347 346 343 340 341 342 342 341 343 343 343 340 340 340 339 339
294 294 297 299 298 298 298 299 299 303 305 304 304 306 305 322 339 339 339 338 340 343 344 346 346 346 347 347 346 345 346 346 346 346 346 342 339 338 338 338 338 339 341 341 342 340 339 338 337
294 293 296 295 295 296 299 296 299 304 306 304 301 302 302 303 338 339 340 339 341 342 344 345 346 346 347 347 346 345 346 346 344 345 345 343 339 336 336 335 336 338 340 341 341 341 340 337 337
293 291 286 294 295 296 298 291 299 303 302 301 301 301 301 302 330 340 341 341 341 341 342 344 346 346 347 346 345 346 347 346 344 344 345 344 340 336 335 336 335 338 339 340 339 338 337 337 337
287 284 287 292 296 297 295 291 297 301 300 300 301 301 301 301 304 332 341 341 340 340 341 343 344 345 345 345 345 346 347 345 344 344 344 345 342 339 335 335 337 337 337 338 338 338 337 337 337
284 286 288 289 294 295 294 293 298 299 300 300 300 302 302 301 302 315 335 341 341 340 340 342 343 343 345 343 343 340 339 341 342 342 343 345 344 341 337 335 336 338 337 335 336 338 340 339 341
290 289 288 292 296 294 294 294 296 298 298 297 298 299 301 301 304 305 328 339 339 338 337 338 339 339 342 340 337 336 336 338 336 338 341 342 344 342 338 335 334 336 338 339 339 342 342 342 343
289 288 287 291 294 293 292 292 296 298 298 299 299 300 300 303 301 303 315 332 337 335 336 336 337 336 340 339 338 336 336 336 337 338 338 340 342 342 340 338 336 336 338 342 344 343 341 341 341
288 287 287 288 292 293 291 289 292 296 297 298 299 301 301 301 300 301 305 318 334 334 335 335 336 336 339 338 337 336 340 337 336 337 338 339 341 342 342 341 341 341 342 342 345 345 342 338 337
286 292 291 291 291 282 290 280 287 291 292 295 297 298 301 301 301 301 302 308 329 333 335 337 336 335 338 338 337 336 335 334 336 337 339 341 341 341 342 342 342 343 347 348 346 345 341 338 334
290 295 292 293 291 290 288 283 286 290 290 292 295 297 298 301 301 301 302 305 321 333 333 335 336 335 337 338 338 336 335 337 339 340 340 344 342 342 343 342 343 344 346 345 344 340 338 336 335
296 293 291 290 288 283 287 286 284 289 290 293 295 297 299 300 300 301 302 305 314 328 333 334 335 335 336 340 340 339 338 339 340 342 340 343 345 345 345 345 344 343 344 342 339 339 338 337 337
291 289 278 276 276 278 287 285 289 293 295 296 297 297 298 299 300 301 300 300 312 324 331 333 334 334 336 337 342 342 342 342 341 344 344 344 345 345 345 345 343 342 341 338 338 336 336 334 334
289 287 279 269 271 278 288 284 288 297 300 300 300 299 298 298 297 299 301 300 304 323 330 333 334 334 336 337 339 342 340 343 344 345 346 346 346 345 343 342 341 339 338 337 334 334 332 331 330
287 283 290 283 283 278 283 287 292 296 297 297 297 299 298 297 299 301 301 301 301 311 327 332 334 335 335 337 340 341 341 343 344 345 344 343 341 340 339 338 336 335 334 329 326 323 321 319 318
291 294 284 283 276 274 279 282 283 289 291 295 296 298 300 304 306 307 308 303 301 304 324 330 333 334 335 338 341 343 343 344 345 344 340 339 337 335 331 329 326 323 320 317 316 314 313 312 312
287 288 288 285 281 277 276 280 289 291 293 296 299 301 302 303 304 305 309 309 302 304 323 330 331 332 333 337 341 343 341 342 341 338 337 337 335 332 326 323 318 315 313 311 310 309 308 307 307
293 289 287 280 278 284 282 281 295 295 298 300 300 301 302 303 304 307 314 314 305 302 320 335 334 333 337 340 343 342 341 341 336 333 333 331 326 323 318 315 312 310 308 307 307 305 305 304 304
Wind_Speed
4 4 2 4 3 5 4 8 2 3 3 3 5 4 7 3 6 6 1 9 17 18 17 18 21 22 22 21 19 18 17 19 20 20 20 20 20 19 17 16 15 15 15 14 13 13 12 12 13
2 2 4 3 5 1 7 5 6 7 4 8 4 3 3 7 4 6 6 10 20 19 16 15 21 23 24 23 20 19 18 18 20 20 19 19 19 18 17 15 15 15 15 14 14 13 13 12 13
0 3 4 5 5 10 7 5 7 4 3 4 4 4 3 3 4 11 7 17 18 17 15 17 22 23 23 24 22 20 19 19 19 20 19 18 17 17 15 14 14 15 14 14 13 13 12 12 12
2 5 5 5 10 9 9 5 2 5 5 2 3 7 4 2 11 7 18 18 17 15 15 20 22 22 23 23 22 21 19 19 18 18 18 17 16 15 14 14 13 13 13 13 12 11 11 11 10
4 3 1 3 8 6 4 3 5 4 4 5 3 8 5 3 8 18 17 19 18 15 13 16 21 22 22 22 22 21 19 18 16 16 16 16 15 13 13 13 12 12 11 12 11 11 9 8 8
4 3 2 8 8 6 4 6 2 4 4 8 4 3 5 2 11 17 16 16 14 15 13 14 20 21 22 22 21 20 19 18 16 15 14 14 13 12 12 11 11 10 10 10 10 9 8 8 7
7 5 6 5 4 9 4 5 6 5 4 7 4 5 2 3 3 16 15 12 13 13 14 11 12 17 21 20 21 20 19 18 16 15 13 12 13 11 11 10 10 10 9 8 8 8 8 8 7
6 5 4 7 7 10 2 8 4 6 6 5 2 5 6 4 11 9 14 11 11 12 11 12 11 11 12 12 20 20 19 18 16 15 13 12 11 11 10 9 9 10 9 8 7 7 7 6 5
5 2 6 8 10 6 4 7 2 1 2 5 4 4 4 17 18 13 14 9 12 10 12 10 11 11 10 10 13 17 20 18 16 13 13 9 4 6 8 8 9 9 8 7 7 7 7 6 5
5 6 11 4 8 1 5 2 3 3 2 3 7 9 9 16 19 19 17 16 18 19 15 12 12 11 11 9 9 7 10 8 6 6 7 6 5 4 5 6 8 8 7 6 6 6 6 4 2
7 11 3 3 4 6 7 4 3 4 8 7 8 2 8 9 11 15 17 16 13 13 13 12 13 12 12 9 7 5 4 5 5 7 9 8 5 4 3 2 2 3 5 2 3 3 2 3 2
5 8 9 2 6 4 5 3 5 9 14 6 10 5 6 11 13 15 18 19 16 16 14 13 13 13 12 8 7 8 7 7 7 8 8 6 4 4 3 3 3 3 2 3 2 2 3 4 4
4 4 3 8 9 9 8 13 7 20 10 6 10 13 8 11 15 11 7 10 17 17 15 14 14 13 12 11 8 8 8 7 8 9 8 6 5 5 4 3 3 3 2 2 3 3 3 3 5
3 5 10 10 10 5 7 9 6 13 6 10 12 19 14 12 17 11 10 14 16 16 16 15 13 12 12 11 12 9 8 8 8 9 8 8 6 6 5 4 3 3 3 3 3 3 3 4 3
5 6 8 4 6 8 9 15 34 5 12 14 11 13 12 8 16 19 18 17 18 18 15 15 13 11 12 12 11 9 9 9 10 8 9 10 8 7 6 4 4 4 4 4 3 3 2 4 3
3 0 1 5 5 7 13 25 6 12 11 11 9 9 10 11 10 19 18 17 15 14 18 16 14 15 15 11 9 7 7 9 8 8 8 11 9 8 6 5 5 4 3 3 3 2 3 4 4
3 3 3 5 4 3 10 7 1 2 8 9 9 10 9 11 6 9 16 17 16 17 18 18 17 18 19 12 9 9 10 8 6 6 7 10 11 9 7 6 5 5 4 4 3 3 3 2 3
6 5 5 6 3 4 11 13 10 8 5 8 9 9 9 9 13 10 14 18 19 17 16 16 14 15 14 8 7 4 4 4 4 6 7 8 8 10 8 6 6 5 3 3 3 4 3 4 2
9 7 10 8 7 8 16 16 11 9 8 9 8 9 9 10 12 6 10 17 19 18 16 16 17 15 13 10 10 7 8 7 5 4 7 8 8 9 9 7 7 6 6 4 6 4 4 1 1
9 11 13 8 9 8 14 23 17 19 17 12 11 12 11 9 6 9 9 10 16 20 20 18 18 16 14 10 7 4 5 3 7 7 8 10 11 11 10 9 8 9 6 6 5 4 3 2 2
11 14 11 12 5 9 10 20 15 14 11 10 10 13 10 12 10 9 8 12 14 16 18 20 20 18 16 12 6 2 4 3 4 5 6 7 9 9 10 10 8 8 6 5 6 6 7 5 2
13 9 13 13 6 5 4 9 5 8 12 10 12 11 14 12 7 9 10 9 12 14 13 16 17 18 18 18 15 18 11 10 8 6 7 7 10 10 10 9 9 8 6 6 7 3 2 3 3
9 6 10 10 7 3 4 5 5 7 10 10 10 11 12 15 9 12 13 12 12 12 14 14 16 17 16 18 17 14 12 5 3 4 7 8 8 10 11 10 6 4 4 4 3 4 5 3 2
4 2 3 1 3 7 15 11 6 8 10 7 7 10 11 11 8 8 12 12 12 9 11 14 16 17 17 16 17 18 16 11 8 8 8 7 6 7 7 7 7 4 2 3 2 5 5 4 3
2 3 3 2 2 9 4 7 18 6 9 12 12 8 10 7 6 8 9 10 13 12 10 11 15 17 18 17 16 17 13 13 14 11 9 9 7 4 6 6 6 6 6 6 4 5 3 5 4
5 9 5 7 4 5 4 6 16 16 18 8 12 11 8 8 6 7 9 11 14 17 17 14 15 16 15 16 17 14 11 9 8 10 8 6 6 7 9 7 5 5 9 7 7 3 5 6 3
5 7 12 5 2 3 4 9 15 12 16 6 9 8 10 9 7 6 7 8 9 13 16 19 17 16 17 18 15 13 12 11 10 8 9 7 7 8 10 11 11 4 5 11 9 7 8 4 5
11 5 4 2 5 5 5 7 11 4 4 6 6 6 7 5 7 6 6 7 7 10 15 16 19 21 19 19 16 13 14 12 10 10 11 13 12 13 14 9 6 6 5 12 10 7 6 7 5
2 6 3 3 4 4 2 9 6 15 11 4 6 6 7 8 8 7 7 7 8 8 11 14 14 14 13 13 12 13 12 12 12 12 11 12 13 15 15 10 8 3 7 12 9 8 8 7 5
7 3 5 4 5 5 3 11 3 4 3 4 6 8 7 6 8 7 9 7 6 8 11 13 13 12 13 15 14 13 12 13 13 13 14 14 14 10 13 15 12 9 10 10 8 7 6 6 5
Wind_Direction
312 313 113 52 51 62 262 258 170 238 263 166 279 194 197 210 206 218 34 136 134 138 143 149 146 136 131 130 131 129 126 125 125 130 135 138 139 142 143 144 145 146 144 142 140 138 136 134 131
328 89 46 86 110 149 257 242 223 217 208 311 220 261 280 273 100 112 119 149 143 140 144 146 146 139 136 134 134 134 133 132 133 137 141 144 144 145 145 148 148 149 149 147 145 141 140 138 135
142 47 99 141 165 211 229 212 224 258 283 275 298 174 250 253 72 166 142 151 142 141 144 150 146 142 139 137 138 139 139 138 140 143 145 146 147 147 147 149 152 152 153 150 147 144 144 141 138
103 14 30 129 217 249 208 193 205 338 341 210 2 308 300 202 154 186 139 143 141 145 144 150 147 144 142 140 140 141 141 142 145 147 147 148 147 145 146 151 154 156 155 153 150 146 145 143 137
40 61 104 232 251 258 242 242 309 340 302 274 27 287 279 46 109 125 146 148 147 145 147 150 149 145 143 143 143 143 144 145 150 149 147 147 147 146 149 153 154 154 154 155 153 148 140 137 135
57 97 120 227 241 256 256 188 215 198 250 301 307 251 258 86 127 140 149 149 151 143 145 155 150 148 147 148 147 147 149 150 152 152 151 148 146 147 150 152 152 151 152 155 155 149 138 138 143
134 111 216 216 256 261 227 180 208 175 191 262 241 262 258 67 112 135 139 140 146 142 145 154 153 151 148 150 151 152 153 154 156 158 155 151 148 150 150 150 148 148 152 157 157 154 149 158 170
118 120 229 218 206 257 225 183 200 162 240 304 179 244 288 150 134 132 125 138 142 145 152 153 156 150 148 157 157 156 157 157 160 161 157 154 151 151 149 148 155 160 162 166 162 162 171 182 199
132 112 228 221 174 223 242 189 144 304 215 336 282 332 276 141 134 129 126 144 150 156 157 160 157 150 148 154 166 160 161 162 163 162 159 148 132 143 157 165 167 167 168 173 177 185 198 215 245
160 181 222 222 215 1 302 251 6 344 45 279 298 353 116 145 150 153 161 174 174 169 170 167 160 155 149 154 159 152 163 155 153 147 148 150 147 152 157 174 179 177 180 185 198 208 222 246 279
201 233 189 195 181 184 246 271 239 256 268 201 222 8 156 163 184 169 167 174 183 172 170 172 165 161 158 153 155 147 142 144 136 147 164 171 164 166 147 153 185 181 196 201 227 250 255 271 281
249 241 246 275 239 208 234 235 244 221 243 295 275 134 179 183 196 193 179 166 172 177 178 176 169 163 163 150 162 156 156 160 169 178 171 164 167 161 159 174 193 188 189 200 222 233 253 264 268
257 268 231 240 245 256 289 264 248 256 253 240 266 281 215 203 202 200 204 180 161 178 179 181 173 170 163 161 164 163 164 165 172 177 178 162 164 177 170 187 183 203 185 208 224 238 259 277 286
248 247 263 264 264 239 247 262 207 252 234 218 219 255 261 213 196 183 173 189 178 173 181 177 179 175 170 173 174 169 169 167 171 182 181 170 172 175 181 183 195 203 203 209 219 233 259 270 278
259 316 319 235 202 220 203 258 239 202 272 271 239 249 262 219 202 188 185 192 183 185 171 180 175 177 177 181 178 174 176 173 185 184 171 176 178 179 170 176 195 210 208 213 223 241 263 280 270
272 312 340 279 193 234 155 257 355 194 190 223 240 258 260 265 202 196 186 186 185 177 182 174 179 181 185 184 181 179 178 185 188 178 175 180 184 175 171 179 202 198 196 211 217 218 251 255 259
346 241 220 305 196 308 202 281 311 172 200 229 227 227 237 267 250 215 193 179 177 184 178 180 182 186 187 181 173 178 188 193 190 177 179 186 184 177 180 191 203 181 191 202 206 222 206 263 272
225 226 216 215 279 320 274 270 314 325 303 255 246 247 252 238 246 207 201 186 173 179 183 183 181 180 181 172 169 154 155 174 168 178 183 182 188 183 180 184 201 183 184 203 185 221 206 226 252
224 240 261 250 264 296 276 289 285 284 291 301 276 260 251 238 250 212 202 188 176 174 171 180 179 177 172 176 174 181 190 186 184 170 174 173 182 184 188 195 190 190 190 195 195 197 213 197 208
223 240 259 269 250 243 271 270 269 264 262 242 251 264 256 254 244 249 185 191 187 179 177 176 186 175 182 182 175 178 164 198 197 184 190 189 186 184 189 195 200 188 186 191 184 170 178 121 149
230 231 244 244 251 256 281 281 254 254 245 238 228 238 244 234 225 233 210 197 189 190 183 181 182 180 179 175 156 122 107 100 156 196 193 186 180 188 193 196 191 190 186 183 174 187 174 170 157
245 222 243 250 253 238 143 282 206 229 247 217 228 220 239 240 210 225 225 198 202 198 190 183 180 182 185 173 176 187 195 188 192 177 191 186 184 188 192 197 205 188 170 175 201 171 49 52 167
266 201 221 220 225 288 264 255 256 209 237 240 222 223 232 242 209 200 218 214 206 190 183 180 182 186 186 188 186 186 197 180 166 172 175 176 188 186 190 202 175 224 194 218 174 127 152 172 131
355 5 346 293 180 232 233 209 225 216 224 249 227 231 218 237 230 201 216 221 212 202 191 177 181 186 187 185 187 191 192 170 174 167 183 187 182 186 186 178 196 187 176 122 96 62 207 138 113
113 94 275 318 196 239 204 206 245 254 226 227 239 235 254 236 236 221 188 207 214 206 195 187 181 190 189 188 186 188 190 181 183 179 178 174 171 163 139 139 151 161 137 117 106 204 144 106 114
179 166 234 194 186 241 341 213 255 220 246 225 226 239 247 262 217 226 237 194 209 208 195 186 188 189 190 190 192 187 173 179 174 174 169 155 149 144 146 132 111 114 92 117 141 148 73 79 83
172 215 226 290 302 359 242 269 288 248 248 224 242 240 242 246 252 229 237 231 193 204 208 196 186 193 188 190 189 187 175 163 170 148 118 118 109 97 83 87 74 37 208 141 75 82 79 75 80
225 175 167 197 207 227 253 252 235 14 156 211 248 243 263 265 276 275 238 248 224 206 206 209 197 189 189 189 187 177 175 169 138 127 133 131 118 106 81 55 114 123 98 73 86 81 82 82 59
153 209 164 156 170 202 239 254 213 226 249 213 269 279 259 275 271 270 267 238 220 204 203 195 199 193 181 182 177 168 159 144 127 127 141 134 127 124 117 116 129 119 90 88 95 88 79 88 79
273 217 165 172 206 219 268 261 275 185 170 190 256 277 289 270 270 270 275 258 222 204 189 188 180 177 179 167 157 158 140 125 119 132 123 127 120 122 113 124 124 121 96 88 90 102 103 101 90